Terminal Aerodrome Forecast
Issued by NWS Miami, FL

Home | Current Version | Previous Version | Text Only | Print | Product List | Glossary On
Versions: 1 2 3 4 5 6 7 8 9 10 11 12 13 14 15 16 17 18 19 20 21 22 23 24 25
000
FTUS42 KMFL 180902 AAA
TAFPBI
TAF AMD
KPBI 180902Z 1809/1906 11005KT P6SM VCSH SCT025 BKN050 BKN250
     FM181500 11010KT P6SM FEW015 SCT030 BKN050
     FM182300 11004KT P6SM FEW025 SCT050=

USA.gov is the U.S. government's official web portal to all federal, state and local government web resources and services.